Вернуться в каталог

STARLINK-3119

АктивенСвязьVLEO
NORAD 49145·PAYLOAD·🇺🇸 United States

Запущен Sep 14, 2021 с Vandenberg Space Force Base

Loading…

Ближайшие Пролёты (ближайшие 24 часа)

TLE

СвежийSource: CelesTrak SupGP

Эпоха: Sep 14, 2026, 21:37 UTC

1 49145C 21082R   26257.90118056 -.00022093  00000+0 -18516-2 0  2575
2 49145  70.0002 137.3707 0002867 271.7990  11.4851 14.98339191    19

Отслеживайте STARLINK-3119 в реальном времени с AllMySat

Download on the App Store